Theta_e
343 344 343 344 344 345 346 346 347 346 347 347 348 346 347 346 350 353 356 361 361 361 362 364 365 364 363 360 362 363 363 364 364 362 362 362 362 362 361 356 358 364 359 359 361 366 367 372 368 366 368 369 370 374 375 374 372 368 373 374 371 371 375
340 342 343 345 345 345 348 350 350 348 348 347 348 353 355 354 355 352 354 361 361 362 361 362 365 365 364 361 359 362 364 363 364 364 362 365 365 366 361 362 364 365 369 364 366 367 368 365 368 369 366 368 367 372 370 372 373 373 369 373 372 373 374
340 342 342 344 345 345 348 347 350 348 348 347 348 349 353 357 352 351 350 359 362 363 361 361 365 364 364 364 360 360 362 361 362 360 359 356 357 353 357 362 361 360 359 363 366 361 363 364 371 371 368 365 363 370 371 371 373 370 373 373 372 368 373
340 341 341 342 346 347 347 345 347 349 348 348 349 350 355 355 355 352 351 357 359 364 361 360 361 362 362 363 360 360 360 361 360 357 356 356 356 354 356 360 359 359 360 358 357 357 356 363 363 369 368 369 369 365 367 368 366 370 370 373 372 370 374
340 341 341 343 344 344 344 345 346 349 350 351 352 354 354 355 355 355 356 359 360 361 360 363 361 361 363 362 358 357 358 357 358 358 357 356 358 357 354 352 354 354 357 356 362 366 371 363 362 365 366 370 365 368 367 367 367 370 370 370 371 367 367
338 340 342 344 344 347 347 347 348 349 351 356 351 352 350 351 354 355 357 354 354 358 364 363 362 360 361 361 359 357 360 361 361 361 359 358 359 354 352 353 353 354 351 354 356 356 361 362 360 361 360 359 359 359 360 362 361 362 368 368 367 364 360
337 339 341 344 343 346 347 350 350 351 357 358 353 353 351 350 350 353 356 354 356 358 358 358 358 358 360 362 361 361 360 358 359 356 357 355 355 355 354 354 355 352 351 355 354 354 354 358 361 363 362 359 361 358 360 364 363 362 366 366 368 368 369
337 338 341 343 343 345 346 349 353 353 355 357 355 354 353 353 353 349 351 353 354 354 353 356 358 360 360 362 357 358 359 360 359 358 357 354 352 353 353 353 354 356 355 351 354 354 351 356 353 358 361 359 361 361 360 365 367 359 360 363 364 363 359
337 339 340 341 342 344 345 347 349 350 352 353 355 354 355 351 352 352 352 356 360 359 361 358 357 359 364 363 359 359 358 361 361 359 356 353 351 350 350 351 352 355 353 349 349 353 353 355 353 358 361 360 362 364 361 365 361 360 361 361 363 362 359
336 337 338 339 340 340 342 343 347 349 350 349 351 354 356 355 355 353 353 353 353 353 355 358 358 357 357 358 358 360 354 357 360 358 355 352 350 349 350 350 351 354 351 349 348 348 352 354 355 359 361 360 363 364 361 362 361 359 359 364 363 362 363
333 335 336 337 337 338 340 341 342 344 346 347 349 351 351 351 352 352 354 353 354 355 354 357 357 356 354 356 356 358 356 351 354 357 357 354 351 349 349 349 349 352 351 349 346 348 349 353 357 359 360 355 357 361 361 360 361 362 358 359 360 362 360
331 332 334 335 336 336 336 338 341 341 343 345 348 348 347 347 348 352 352 352 355 355 353 353 355 354 353 358 356 354 355 354 352 353 354 354 353 350 350 348 348 349 352 351 348 348 349 351 351 355 358 356 355 358 360 361 361 362 361 358 358 359 359
329 330 332 332 333 334 336 337 337 340 342 342 343 345 348 350 351 351 351 353 354 353 353 354 358 358 356 356 356 354 354 355 356 350 356 354 352 349 349 348 347 347 349 351 350 347 345 348 351 352 357 358 357 356 359 361 361 363 364 362 361 360 358
329 328 329 330 331 332 332 333 336 339 339 341 342 343 348 349 350 351 351 351 353 355 354 354 350 349 352 356 354 353 352 355 357 353 356 358 356 354 349 347 346 347 349 351 349 347 345 343 347 351 352 357 357 358 360 362 361 363 365 364 361 360 359
324 325 326 327 328 329 329 330 331 333 335 339 341 341 342 342 344 348 349 351 354 354 353 353 355 354 354 356 354 353 355 354 355 352 352 356 360 358 355 353 353 355 355 353 348 346 347 345 343 348 349 352 356 358 357 356 358 358 361 362 362 360 355
324 324 324 325 326 327 328 328 329 330 332 333 334 337 339 339 341 344 349 351 354 354 351 355 354 352 352 351 352 354 356 359 353 352 354 354 351 349 348 349 357 349 352 355 353 354 354 352 351 347 350 351 354 356 354 354 354 356 348 352 359 360 355
323 324 324 325 326 326 327 328 327 328 330 330 331 333 335 341 342 343 345 347 347 349 351 351 350 353 352 354 352 353 355 357 354 354 353 354 355 354 355 355 353 349 356 360 361 360 370 363 353 348 345 349 351 352 351 351 351 346 337 338 345 358 359
321 322 322 323 324 325 325 327 327 327 327 327 327 329 332 338 338 339 341 343 346 351 352 351 349 349 350 350 351 352 352 355 357 356 356 357 355 355 355 356 353 351 352 355 358 364 360 354 357 358 351 346 346 347 350 352 349 335 333 335 336 346 357
321 321 321 322 322 323 323 324 326 327 326 327 328 328 329 332 335 341 342 343 347 349 348 347 346 346 348 347 347 348 349 351 353 355 356 356 357 357 354 353 355 353 354 354 357 359 363 359 356 357 356 352 352 350 348 350 341 332 329 332 333 334 348
320 321 321 321 322 322 322 323 324 325 326 327 328 329 330 333 331 333 337 340 345 345 344 344 344 344 345 347 346 346 346 346 347 349 354 356 356 357 358 355 353 355 357 358 358 358 355 357 359 358 361 358 356 357 353 350 344 331 326 327 329 331 338
320 319 320 320 320 320 322 323 324 325 325 324 325 328 329 329 331 331 333 336 336 338 340 339 339 341 343 344 346 346 345 343 341 343 346 352 357 357 356 356 356 355 355 356 357 357 357 357 354 356 359 358 357 357 355 353 340 329 323 323 324 328 334
319 318 318 319 320 320 320 320 323 324 327 328 325 324 326 326 331 331 330 333 337 337 336 337 337 337 339 338 340 344 346 344 342 342 346 349 351 354 357 357 357 356 357 357 356 358 360 359 356 353 354 356 355 356 356 357 337 332 323 320 321 326 341
318 318 318 319 319 320 321 321 321 323 328 328 324 328 329 325 328 330 329 329 332 334 334 336 337 337 338 337 339 341 344 346 343 343 344 346 349 350 353 355 357 358 359 356 355 354 355 356 355 357 355 357 357 355 354 355 346 331 321 318 319 324 344
318 318 317 318 319 320 320 320 320 322 321 322 322 322 329 332 331 330 331 329 331 336 337 336 335 336 338 337 339 340 343 345 347 345 344 345 346 349 352 354 356 358 360 355 354 354 354 356 358 357 356 354 354 353 354 356 351 331 319 316 317 329 346
316 317 317 317 317 317 317 319 320 320 321 320 320 321 323 326 326 325 327 328 326 331 332 332 332 332 333 332 334 338 340 339 343 345 344 345 345 346 349 351 353 355 356 358 357 356 357 358 357 357 357 357 356 354 354 356 350 332 319 316 315 327 347
315 315 316 316 317 317 318 321 319 318 317 317 320 321 321 322 323 325 325 325 324 325 324 328 331 332 335 335 334 335 337 338 343 343 343 345 345 347 349 352 353 354 355 357 358 357 356 356 355 354 355 355 355 354 354 354 356 353 320 315 313 318 348
315 315 315 315 316 320 316 317 316 316 316 320 322 319 320 321 321 322 324 326 326 325 325 328 331 333 335 336 335 334 334 334 337 339 341 342 346 345 347 348 350 354 354 354 355 354 353 354 355 354 356 357 357 354 354 355 354 352 328 314 312 314 327
313 314 315 317 318 317 316 315 317 317 316 318 318 319 319 319 321 324 324 323 323 325 329 332 332 333 334 334 335 335 334 333 339 339 337 343 347 347 347 347 348 348 353 356 356 353 352 352 353 353 353 354 356 356 357 359 359 360 338 326 312 311 315
313 313 313 314 315 316 316 316 315 316 317 317 318 319 319 318 320 321 323 323 325 326 328 330 332 333 334 335 335 337 336 337 336 339 334 338 342 344 344 346 346 348 351 350 353 354 351 350 350 352 350 348 349 351 352 356 357 347 352 333 315 310 309
313 313 312 313 314 315 316 316 316 316 317 317 319 320 321 321 321 322 321 323 328 327 327 328 328 332 331 332 334 333 332 331 332 334 335 336 340 344 345 345 346 347 349 350 351 352 353 352 352 349 347 346 348 350 352 353 355 349 339 343 319 309 310
312 312 312 313 313 317 316 315 314 314 316 317 319 320 322 321 320 321 321 325 327 328 326 326 326 328 328 329 329 330 329 330 332 332 332 334 336 338 339 341 344 344 347 349 349 351 352 355 351 347 346 348 348 350 353 356 358 359 350 336 330 313 308
313 314 314 314 314 314 314 314 314 314 315 316 318 318 322 319 319 320 322 321 325 325 324 325 326 326 326 325 325 325 326 328 327 327 331 333 332 332 334 335 338 343 349 349 348 351 352 353 348 346 345 345 348 352 355 358 359 358 356 352 345 335 320
313 313 313 313 313 315 314 314 313 314 315 314 317 317 318 318 318 319 323 323 320 320 324 323 324 325 325 325 322 325 326 327 325 326 326 327 326 328 331 336 336 336 343 345 340 342 348 349 348 347 348 347 348 349 352 353 355 360 356 355 359 356 348
312 312 314 314 314 315 314 313 313 313 314 315 316 317 318 318 318 319 319 320 320 321 322 323 323 321 322 322 322 323 322 322 327 328 325 324 324 324 328 331 331 331 338 339 337 337 338 339 344 343 342 340 341 342 343 344 350 355 353 353 345 342 345
312 313 313 313 313 314 313 313 313 313 313 314 315 316 317 317 318 319 320 320 321 323 322 321 322 323 322 322 322 322 325 322 322 323 323 324 327 330 336 333 331 337 338 335 337 335 332 333 333 335 335 337 340 340 341 342 341 347 333 337 318 330 337
312 312 312 312 313 313 313 314 313 313 313 314 315 316 316 316 318 319 318 320 321 322 321 321 321 322 322 322 323 323 323 323 322 323 324 323 323 325 328 333 322 326 332 329 333 327 320 321 333 336 338 336 338 341 339 339 342 326 313 310 310 312 313
311 311 311 311 311 311 312 312 313 313 313 314 315 315 315 316 317 319 319 321 321 321 321 321 321 320 320 323 323 324 324 323 322 324 327 327 325 328 328 329 330 312 310 316 323 320 313 308 308 310 314 330 334 334 324 321 316 311 309 307 305 303 302
311 311 311 310 310 311 311 311 312 312 312 313 314 314 315 314 315 318 317 319 320 321 321 321 320 319 318 319 320 324 326 325 326 326 327 328 329 328 328 327 328 332 318 307 309 310 307 305 305 305 306 307 314 327 334 324 314 308 306 306 304 305 306
Wind_Speed
12 11 12 11 11 11 11 10 11 11 11 13 10 12 14 13 10 12 12 12 14 13 13 12 12 11 12 10 9 8 8 7 7 7 5 6 5 6 6 7 6 5 5 5 5 4 4 2 4 6 6 5 5 4 4 3 4 4 3 3 4 2 1
11 12 11 10 9 9 6 4 6 8 9 11 10 7 4 6 9 9 5 11 13 13 13 12 12 11 11 10 10 9 8 9 9 7 7 6 6 5 6 5 5 4 4 5 5 3 4 4 3 4 6 5 5 5 5 4 3 3 4 3 3 3 3
8 8 11 8 5 4 6 4 8 11 10 10 11 9 6 8 8 10 6 7 11 12 13 13 12 12 11 10 10 11 10 9 9 10 10 10 9 10 7 6 5 5 5 4 5 6 5 5 4 4 5 6 6 5 5 5 4 3 3 3 3 4 3
8 6 6 4 4 5 8 10 12 10 10 10 9 10 7 11 9 8 8 8 13 10 13 14 14 14 12 11 11 11 11 11 10 11 12 10 10 9 7 7 6 6 6 6 6 6 7 6 7 4 5 4 4 6 5 5 6 4 4 4 4 3 3
10 8 8 5 8 9 7 5 6 7 7 9 6 7 8 10 8 7 6 5 7 8 11 12 13 13 11 12 11 11 12 13 11 10 10 9 9 8 8 10 9 8 7 8 6 4 3 6 7 6 5 4 5 4 6 5 4 5 4 4 3 4 5
9 7 6 9 11 8 9 10 10 9 8 6 7 8 9 10 6 8 6 3 8 10 8 9 10 11 12 13 11 11 11 11 10 9 9 9 9 10 10 9 10 9 10 8 7 7 6 4 6 7 8 8 7 7 7 6 6 6 5 5 4 4 5
9 7 5 5 4 9 11 10 9 8 6 6 6 8 8 7 8 7 5 7 7 9 10 13 12 11 9 10 11 11 12 13 12 13 11 12 10 10 10 9 9 10 8 7 7 8 8 6 5 7 8 8 7 8 7 6 6 5 5 5 5 4 3
10 7 8 10 7 2 7 8 7 6 5 6 6 4 5 3 6 9 9 10 10 12 13 15 11 9 9 8 8 12 13 14 13 12 11 13 12 12 10 10 8 8 8 10 8 8 10 9 9 6 7 8 8 6 6 7 6 7 5 6 5 6 6
9 10 10 11 11 10 9 7 5 4 5 6 6 5 5 6 5 7 11 10 6 4 2 2 2 1 4 5 5 10 10 13 12 12 13 15 13 14 13 12 11 8 9 10 10 8 8 10 10 7 7 7 6 7 6 5 7 6 6 6 7 6 6
9 10 11 11 11 13 13 11 6 5 4 3 3 2 3 2 7 10 8 10 9 5 1 3 3 2 3 5 6 3 8 12 11 15 15 15 14 15 15 13 12 10 11 11 11 11 8 7 10 8 7 7 6 7 6 6 6 7 7 6 7 7 7
9 10 10 11 13 14 12 13 12 9 6 5 4 3 5 5 2 3 4 3 1 6 6 5 6 5 5 6 8 4 4 6 17 14 15 16 14 16 16 15 13 11 13 12 11 11 10 8 7 8 9 10 8 7 8 8 7 7 8 7 7 7 7
9 10 9 12 14 14 13 11 9 10 9 7 5 7 7 5 7 9 5 2 4 5 4 4 3 3 3 5 6 6 5 8 10 18 17 16 16 16 15 14 13 13 12 12 11 9 10 10 9 8 9 9 9 8 8 8 8 7 8 9 9 8 8
10 9 10 14 14 14 13 10 12 11 9 9 11 8 5 4 6 6 1 3 7 6 5 4 4 2 3 4 5 7 9 9 9 13 15 14 14 13 12 13 14 14 14 11 10 10 10 12 11 8 8 9 9 9 8 8 8 7 8 8 7 7 9
12 12 12 12 13 15 16 13 11 8 9 11 8 7 7 6 7 7 5 4 2 3 4 4 5 1 2 4 4 3 6 4 4 11 16 11 9 9 10 11 11 10 9 11 11 11 11 11 12 10 9 8 9 8 7 8 8 7 7 8 8 7 7
11 12 12 14 14 13 14 14 12 11 11 10 9 8 7 9 7 3 3 4 5 6 7 8 6 2 4 2 3 6 6 3 6 8 13 12 13 12 8 5 6 5 5 8 10 11 10 10 10 11 11 10 9 9 9 10 10 9 8 8 9 8 8
11 11 12 13 13 14 13 13 13 12 11 11 12 9 7 7 8 6 5 5 4 6 10 7 4 2 1 1 3 4 4 3 5 2 4 7 6 10 15 19 16 8 6 4 6 7 7 7 6 7 11 11 10 10 11 10 10 11 15 13 9 9 10
10 10 12 12 12 13 13 13 13 12 11 12 12 11 8 7 4 2 6 7 10 10 10 9 8 8 6 5 7 6 3 3 4 3 4 3 4 7 4 7 7 14 17 8 4 5 3 4 7 8 7 11 12 12 12 12 11 16 16 17 16 11 9
9 10 11 12 12 12 13 13 13 13 13 13 12 11 10 6 7 8 9 10 9 8 9 9 9 8 7 8 8 8 8 7 5 5 3 2 2 3 4 6 8 8 9 11 10 6 5 7 6 5 7 8 10 13 13 12 14 15 18 19 19 16 11
10 10 11 11 11 12 12 12 12 12 12 11 11 9 10 8 7 7 7 8 7 8 9 9 9 8 8 8 8 7 7 7 6 4 3 3 2 3 4 4 7 5 5 5 7 7 4 6 7 7 7 8 8 7 10 12 15 15 17 19 20 20 16
8 9 10 11 11 11 11 10 10 10 11 11 10 10 9 8 9 8 8 8 8 8 8 8 8 9 9 8 8 7 6 5 7 8 8 6 3 2 1 3 3 4 6 5 4 4 5 9 7 7 7 8 8 7 9 10 11 18 17 19 20 20 17
6 8 9 10 10 10 10 9 9 9 10 11 10 9 9 9 9 8 9 9 9 9 9 10 10 9 9 8 7 7 7 6 7 6 7 7 6 4 3 2 3 4 4 4 4 4 3 2 4 6 8 8 9 9 11 13 14 10 16 18 20 20 16
5 7 8 8 10 9 9 9 8 8 7 8 9 9 9 9 9 9 9 9 8 8 9 9 9 9 8 8 8 7 6 6 7 6 5 6 5 6 5 4 4 4 3 4 5 5 4 3 3 5 4 4 6 11 11 13 15 15 14 17 17 21 12
5 6 7 7 8 10 9 9 8 8 6 7 8 6 6 8 9 9 9 9 9 9 9 8 8 7 7 7 6 5 4 4 3 3 5 5 5 5 6 6 5 5 4 4 5 7 7 6 5 6 7 8 9 10 13 14 15 16 15 17 19 12 8
6 5 6 6 6 9 9 8 8 7 7 8 9 8 4 5 6 8 7 8 7 7 6 7 7 7 7 6 6 5 5 3 2 3 2 2 3 4 5 5 5 5 4 5 6 6 6 6 6 6 5 7 9 11 11 13 14 16 16 17 18 16 9
5 5 5 5 8 8 8 7 7 7 7 8 9 9 8 7 8 9 8 8 8 7 7 8 8 8 8 8 8 7 5 5 3 1 2 2 3 3 5 5 5 4 4 5 5 6 6 6 7 8 7 8 11 13 12 11 14 18 16 17 17 16 11
4 5 6 6 9 8 7 6 6 7 8 8 9 9 9 8 8 8 8 8 8 9 9 8 7 7 7 7 7 7 6 6 5 5 5 4 4 4 4 4 5 5 5 5 4 5 7 8 8 10 9 8 9 9 11 14 15 15 14 18 18 19 13
4 5 5 6 8 7 6 6 6 7 8 7 7 8 9 9 9 9 8 7 7 8 8 7 7 6 6 6 7 7 7 7 6 6 6 5 3 4 5 5 5 5 5 5 4 5 5 5 6 8 9 6 5 6 8 10 14 16 22 16 15 19 17
5 6 6 7 6 6 6 6 7 7 8 8 9 10 10 9 8 7 8 8 8 9 7 6 6 5 5 5 6 6 7 7 6 6 6 5 4 3 4 4 5 5 5 4 4 4 4 5 4 6 8 9 8 7 7 5 5 5 13 17 16 16 21
6 6 7 7 7 8 8 7 7 7 8 8 10 9 9 9 8 7 6 7 8 8 7 7 6 5 5 5 5 4 6 6 6 6 6 6 6 6 6 5 5 5 5 5 5 5 6 4 4 6 7 7 7 8 8 6 5 8 10 15 14 15 17
6 6 6 6 7 9 9 8 8 8 8 8 7 7 7 8 7 6 7 7 6 8 8 7 7 6 6 5 5 5 7 7 7 6 6 7 6 6 6 6 5 6 5 5 5 5 5 3 5 7 7 6 8 8 7 6 8 9 12 11 10 12 15
5 6 7 7 8 9 9 8 9 9 8 7 8 7 7 7 8 9 9 8 7 7 7 7 7 7 7 6 6 7 7 7 5 6 6 7 6 6 6 7 6 6 5 5 5 5 5 4 5 6 4 5 7 8 8 7 7 8 6 5 9 9 12
5 6 7 8 8 9 9 9 9 9 9 9 9 9 7 8 8 9 8 9 8 9 8 8 8 8 8 9 9 9 9 8 9 8 7 7 7 8 8 8 7 6 4 4 4 4 4 4 5 7 6 6 7 6 6 7 6 6 3 2 6 7 8
5 6 7 8 8 8 8 9 9 9 10 10 10 9 9 10 9 9 8 8 9 10 8 9 9 8 8 7 9 8 8 9 8 8 8 8 9 9 7 5 6 6 5 4 5 4 4 3 1 3 6 7 7 8 8 8 7 1 1 3 2 6 7
5 6 6 6 7 7 8 8 9 10 10 9 9 9 9 10 10 10 10 10 10 9 9 9 9 10 10 11 10 9 9 8 11 10 8 8 8 8 7 6 7 7 5 6 6 6 6 6 5 4 5 6 6 7 6 6 6 5 3 4 6 7 8
5 5 5 6 7 6 7 8 9 10 10 10 10 10 9 10 10 10 11 10 9 9 9 9 10 10 11 11 10 9 8 9 9 9 9 8 7 6 4 5 6 6 5 6 5 6 7 6 6 7 7 6 5 5 6 4 6 5 4 3 6 3 7
6 6 6 6 6 7 7 8 8 9 10 9 9 9 10 10 9 9 10 10 9 8 9 10 9 10 10 9 9 9 9 9 9 8 8 9 9 9 8 8 8 8 8 10 8 10 9 8 8 7 6 8 7 6 7 7 6 7 12 14 8 9 15
7 7 7 8 8 7 7 8 8 9 10 9 9 10 10 10 10 9 9 9 8 9 9 8 8 9 9 9 9 8 9 10 10 9 7 7 8 8 9 9 8 12 16 14 13 13 14 13 14 13 12 10 8 8 12 12 13 14 15 14 14 10 10
6 8 9 8 8 8 8 8 8 9 9 9 9 10 10 11 12 10 11 11 10 9 10 9 9 9 9 10 10 10 9 8 9 9 8 7 7 8 8 9 10 8 8 14 15 15 16 15 15 15 15 16 13 10 8 10 12 14 14 14 12 8 12
Wind_Direction
171 175 176 182 178 189 191 191 192 187 187 191 206 198 186 191 171 159 165 169 176 177 180 176 179 179 180 180 182 184 180 177 176 185 186 178 187 171 178 189 187 187 177 175 195 196 161 213 149 152 151 166 156 167 152 153 153 173 147 152 154 172 112
175 176 169 178 176 174 172 213 213 200 200 193 197 210 111 94 52 34 345 172 179 180 182 180 180 185 183 178 179 183 185 182 179 179 186 186 183 177 183 187 185 190 194 180 162 193 148 188 170 151 154 163 175 158 167 160 179 177 162 170 168 179 170
173 169 167 151 122 115 136 215 227 204 197 194 199 200 150 109 113 133 171 243 188 184 188 183 187 187 187 179 181 181 185 188 182 181 189 191 191 192 189 178 193 178 198 202 161 180 179 176 178 169 171 169 180 168 166 172 175 187 146 177 188 184 175
152 141 112 113 131 182 189 200 208 195 199 194 189 192 120 104 130 163 187 217 189 187 192 188 190 191 188 185 187 181 185 190 189 189 193 191 188 195 186 182 184 190 182 198 196 195 177 172 171 180 187 171 191 164 188 180 177 184 185 171 186 194 182
130 149 141 157 175 205 210 212 208 201 189 190 167 100 97 95 129 153 186 240 197 200 209 197 194 193 189 190 193 190 190 190 192 194 196 193 181 197 189 192 185 203 183 191 194 190 193 168 170 177 176 191 193 178 177 187 188 172 187 185 191 197 195
111 113 122 153 166 195 183 189 191 182 179 125 122 112 105 133 137 162 159 131 245 210 196 208 210 199 192 193 198 193 192 194 195 195 199 197 181 190 195 196 185 200 189 191 183 186 198 189 180 178 187 194 200 192 192 183 198 188 182 190 194 211 208
96 89 103 63 148 177 194 178 176 174 149 107 93 107 129 144 151 157 176 197 220 216 207 212 198 217 204 198 200 196 191 196 197 199 199 204 196 192 195 197 195 193 200 185 189 185 186 194 200 182 185 192 196 203 186 188 187 193 177 184 194 220 225
58 84 84 79 52 63 177 173 149 127 103 102 114 111 95 133 152 171 191 200 208 216 204 214 210 203 221 209 216 211 195 201 196 200 200 204 200 202 195 196 204 188 199 187 192 191 189 185 202 201 186 199 190 204 197 179 184 192 193 181 194 201 213
64 56 62 61 52 43 44 43 50 77 86 92 122 125 147 193 172 186 194 187 184 206 157 225 230 158 27 21 357 300 236 203 201 199 200 203 202 203 204 198 199 203 198 199 192 197 199 181 198 193 195 200 195 187 203 187 184 199 196 189 188 196 219
71 71 65 63 60 55 46 46 54 57 66 63 45 110 110 216 192 184 190 190 172 197 46 59 47 24 85 65 318 1 323 290 221 200 203 204 203 203 205 201 198 199 204 205 201 192 201 195 190 189 188 202 202 186 195 202 198 191 204 199 187 193 204
75 71 66 69 71 57 43 46 50 58 43 27 20 8 23 327 229 78 35 350 41 114 166 162 163 174 168 171 182 218 197 288 284 231 205 205 205 204 204 204 200 195 202 204 212 196 188 202 194 182 187 197 206 197 194 205 206 196 199 205 204 194 202
76 78 80 75 72 73 54 33 40 52 46 27 38 52 67 56 35 30 20 303 137 191 186 176 164 151 175 174 165 175 183 204 257 268 221 211 209 206 202 204 203 197 197 206 211 211 189 189 202 193 187 196 199 207 203 203 206 202 205 208 204 201 202
83 72 74 75 74 79 89 64 36 23 36 54 44 51 72 88 113 123 252 146 173 202 184 160 137 129 186 193 186 185 205 208 207 257 267 226 217 210 202 203 204 201 195 199 208 213 215 189 192 199 193 191 197 204 207 205 209 207 206 214 219 203 198
85 85 81 76 76 78 79 85 93 76 38 28 49 18 19 44 56 23 44 36 350 133 97 93 107 80 291 283 262 245 245 223 228 269 273 272 247 222 214 207 206 201 191 183 199 210 217 218 189 189 198 195 200 207 205 206 209 212 210 210 222 227 210
83 81 81 81 76 73 76 76 72 74 87 93 77 52 26 35 39 130 79 47 32 45 72 39 42 341 252 259 260 251 264 345 31 342 332 331 327 313 291 251 217 212 202 178 191 203 212 222 219 187 192 198 198 205 214 212 211 213 211 211 212 223 230
78 75 71 72 73 74 73 78 77 72 69 73 77 67 35 33 38 24 24 41 39 51 59 73 78 218 325 119 298 324 330 98 107 94 22 2 30 17 0 346 331 283 231 235 210 194 196 208 228 217 185 190 191 196 210 218 218 209 209 207 210 211 221
76 69 66 66 70 70 67 62 69 72 67 65 66 68 59 36 12 33 58 28 31 42 47 58 50 63 89 70 56 56 61 105 125 145 159 177 114 105 50 339 350 344 322 292 241 233 195 205 215 228 226 193 191 199 209 217 222 202 197 202 209 212 216
87 77 64 60 58 57 60 61 54 58 60 58 61 62 67 52 35 36 32 37 21 37 48 51 60 54 56 48 43 38 32 44 92 96 52 354 2 59 99 163 167 210 244 298 282 230 227 224 219 227 241 238 215 204 209 217 221 205 194 197 203 208 215
85 81 82 69 55 54 53 50 50 51 56 53 52 54 54 64 59 50 47 52 57 23 36 42 45 54 62 57 51 42 26 14 21 44 95 75 71 143 154 282 298 245 212 252 309 325 280 228 220 223 227 241 258 252 218 211 215 208 197 200 201 205 210
64 69 71 73 72 60 51 48 44 42 47 49 42 49 50 39 54 50 46 52 59 63 53 45 46 48 50 51 43 41 49 22 19 13 10 3 10 10 143 177 192 296 312 304 305 297 305 312 274 239 224 230 247 260 265 254 217 201 197 202 204 206 206
54 67 68 70 63 61 59 51 41 39 45 47 37 31 38 39 38 42 43 50 51 48 51 42 42 41 42 44 44 38 34 33 37 16 359 351 348 338 302 258 240 226 233 262 263 250 269 289 321 318 308 281 253 249 256 255 261 216 202 200 203 208 206
51 57 57 55 73 62 47 43 40 25 39 59 49 31 32 34 33 40 31 35 55 52 49 47 42 38 39 37 28 37 44 37 15 2 353 346 339 340 331 283 256 250 236 237 250 268 260 241 239 249 254 265 284 282 283 265 255 246 210 211 209 205 201
67 48 63 54 55 68 52 33 20 20 15 57 50 35 32 39 33 40 29 23 37 49 50 49 44 38 32 27 18 16 41 117 92 310 338 345 335 329 332 330 298 263 242 240 251 258 254 252 237 224 221 226 226 226 234 249 250 241 215 204 207 205 218
89 63 48 45 51 60 46 30 4 4 11 26 36 17 6 63 41 48 32 12 15 46 54 52 41 29 23 17 4 8 354 13 143 164 222 295 322 323 317 316 322 308 272 262 270 267 273 282 276 274 268 264 261 242 237 241 245 241 216 206 198 190 195
42 42 38 32 40 40 28 14 351 345 4 15 26 357 352 36 39 35 27 12 7 28 33 39 35 25 17 10 353 2 350 359 5 309 305 307 313 315 308 310 309 296 296 286 271 271 278 284 283 284 279 268 269 271 266 260 248 239 216 206 198 196 207
29 20 20 6 43 24 5 342 332 360 358 6 19 340 350 15 26 26 23 11 3 12 14 22 24 17 12 2 349 348 352 344 3 347 330 312 305 306 291 286 286 284 287 283 280 280 281 276 278 285 283 265 257 274 286 283 273 264 227 206 201 199 204
14 12 6 7 24 358 345 347 4 359 342 12 349 347 0 14 8 6 4 360 358 4 1 4 9 3 7 350 344 342 344 348 344 334 318 313 302 293 295 292 286 289 281 286 292 303 303 310 309 294 291 311 329 306 301 307 318 328 329 282 223 203 203
6 1 1 9 357 346 3 359 7 352 351 351 346 4 3 356 4 354 355 346 347 347 342 1 355 353 348 340 328 337 337 338 325 318 320 317 309 282 284 280 288 291 285 261 251 257 272 275 285 285 280 280 273 268 263 245 243 294 304 302 276 247 208
17 12 3 349 350 8 10 4 355 353 350 351 356 355 349 344 347 346 339 335 339 339 340 345 345 341 333 318 322 326 330 314 320 318 324 313 302 295 290 291 287 276 277 282 271 274 276 260 271 271 263 271 275 275 276 286 285 218 233 245 236 237 260
13 1 352 356 1 9 4 356 353 349 345 347 352 349 348 346 339 331 333 332 354 339 340 336 334 324 317 317 317 338 321 316 315 324 315 306 302 302 288 283 275 274 271 260 253 253 246 224 225 246 265 278 277 273 267 254 255 259 261 271 255 239 225
3 5 355 6 360 12 358 349 337 333 332 339 343 347 349 345 343 343 341 350 339 339 326 320 315 318 321 327 331 320 313 309 312 309 307 303 304 294 283 277 270 265 263 268 269 257 247 199 201 246 286 284 271 276 279 274 259 261 264 310 311 254 237
20 9 360 357 0 359 342 331 330 331 333 337 339 343 341 340 337 336 343 339 337 329 333 332 336 333 330 322 314 312 310 310 310 304 290 298 296 288 278 267 256 247 235 264 293 295 313 5 330 302 294 282 284 284 283 284 282 291 331 50 241 255 259
14 9 1 351 350 342 341 339 334 336 335 334 338 334 331 330 331 329 335 329 333 328 334 334 323 314 306 304 305 306 304 296 295 297 303 292 285 281 278 301 334 330 321 290 288 312 43 85 2 327 308 309 323 326 321 312 306 313 206 249 330 18 20
7 348 351 344 335 348 335 335 332 331 331 329 330 329 329 328 326 324 325 327 321 326 327 320 320 314 311 306 303 296 293 289 291 291 286 286 291 299 305 313 303 301 321 4 5 355 342 333 320 295 291 290 293 294 300 309 331 328 320 18 43 16 360
340 337 337 340 345 335 335 333 329 328 326 325 328 325 324 323 321 322 321 319 323 323 321 314 312 311 306 304 298 297 298 296 294 291 293 296 296 293 316 309 306 318 329 313 327 310 302 298 284 282 286 288 284 292 292 281 283 279 147 118 104 31 312
335 334 335 335 334 334 332 328 328 323 321 318 318 319 318 319 315 314 314 315 315 315 310 312 309 307 305 305 302 298 298 295 294 295 302 301 300 304 306 322 331 306 291 288 271 256 236 225 251 264 281 281 269 262 268 276 281 306 304 296 285 248 238
331 331 330 334 326 325 328 326 322 317 315 321 323 320 317 314 315 312 311 307 304 301 300 302 305 304 304 301 297 297 300 302 298 297 297 295 294 295 296 289 275 255 246 240 245 244 244 241 242 251 252 239 266 258 249 257 265 269 271 276 276 265 250
327 329 324 318 318 317 318 317 319 321 321 318 316 316 320 317 317 319 316 316 315 311 304 299 295 293 291 294 295 299 295 289 289 292 290 288 285 286 283 283 292 288 239 237 240 245 247 247 245 244 243 247 240 252 274 259 255 252 257 263 268 257 263